Regional Weather Roundup
Issued by NWS

Home | Current Version | Previous Version | Text Only | Print | Product List | Glossary Off
Versions: 1 2 3 4 5 6 7 8 9 10 11 12 13 14 15 16 17 18 19 20 21 22 23 24 25 26 27 28 29 30 31 32 33 34 35 36 37 38 39 40 41 42 43 44 45 46 47 48 49 50

000
ASUS45 KCYS 240810
RWRWY

WYOMING REGIONAL WEATHER ROUNDUP
NATIONAL WEATHER SERVICE CHEYENNE WY
200 AM MDT MON JUL 24 2017

NOTE:  "FAIR" INDICATES FEW OR NO CLOUDS BELOW 12,000 FEET
WITH NO SIGNIFICANT WEATHER AND/OR OBSTRUCTIONS TO VISIBILITY.

WYZ001-240900-
YELLOWSTONE NATIONAL PARK

CITY           SKY/WX    TMP DP  RH WIND       PRES   REMARKS
LK YELLOWSTONE   N/A     44  37  76 NW3       30.28S
W YELLOWSTONE  NOT AVBL

$$
WYZ002>013-054>058-071-098>099-240900-
NORTHERN WYOMING

CITY           SKY/WX    TMP DP  RH WIND       PRES   REMARKS
JACKSON        FAIR      48  43  81 N6        30.18S
CODY           FAIR      70  39  32 SW3       30.00F
GREYBULL       FAIR      67  32  27 CALM      29.90S
WORLAND        FAIR      67  39  35 S8        29.93S
SHERIDAN       FAIR      70  45  40 SE7       29.91S
BUFFALO        FAIR      69  39  33 W3        30.01R
GILLETTE       FAIR      63  57  81 NE5       29.95F
HULETT         TSTM      64  55  72 SE13G28   30.00F
NEWCASTLE      FAIR      79  41  25 E3G18     29.98R THUNDER

$$
WYZ014>020-022>026-101>103-240900-
CENTRAL WYOMING

CITY           SKY/WX    TMP DP  RH WIND       PRES   REMARKS
BIG PINEY      FAIR      51  38  60 S7        30.23F
PINEDALE       FAIR      46  41  81 W3        30.24F
DUBOIS         FAIR      55  34  44 NW12      30.21S
LANDER         FAIR      71  32  23 W13       30.08S
RIVERTON       FAIR      66  33  29 S6        30.06R
CASPER         FAIR      67  38  34 W9        30.02R
DOUGLAS        FAIR      67  46  47 E9        29.99R

$$
WYZ021-027>030-104>119-240900-
SOUTHERN WYOMING

CITY           SKY/WX    TMP DP  RH WIND       PRES   REMARKS
EVANSTON       FAIR      62  40  44 S7        30.24S
KEMMERER         N/A     59  36  41 NW8       30.25S
FORT BRIDGER   FAIR      67  36  31 W9        30.25S
ROCK SPRINGS   NOT AVBL
RAWLINS        NOT AVBL
SARATOGA       FAIR      59  36  41 SE10      30.21S
LARAMIE        FAIR      58  46  64 S9        30.21S
CHEYENNE       FAIR      67  51  56 S16       30.14F
TORRINGTON     FAIR      75  51  43 S15       29.97F
PINE BLUFFS    FAIR      70  50  49 S16       30.10F

$$



USA.gov is the U.S. government's official web portal to all federal, state and local government web resources and services.